Waarnemingen

Advertentie
Mijn weer
Auch, Frankrijk (7622): temperatuur & dauwpunt: 26.05.2020 04:00:00 - 01.06.2020 04:00:00 (CEST)Auch, Frankrijk (7622): temperatuur 5cm: 26.05.2020 04:00:00 - 01.06.2020 04:00:00 (CEST)Auch, Frankrijk (7622): temperatuur -20cm & temperatuur -100cm: 26.05.2020 04:00:00 - 01.06.2020 04:00:00 (CEST)Auch, Frankrijk (7622): windsnelheid & windstoten: 26.05.2020 04:00:00 - 01.06.2020 04:00:00 (CEST)Auch, Frankrijk (7622): windrichting: 26.05.2020 04:00:00 - 01.06.2020 04:00:00 (CEST)Auch, Frankrijk (7622): luchtdruk: 26.05.2020 04:00:00 - 01.06.2020 04:00:00 (CEST)Auch, Frankrijk (7622): zicht: 26.05.2020 04:00:00 - 01.06.2020 04:00:00 (CEST)Auch, Frankrijk (7622): Zonneschijnduur: 26.05.2020 04:00:00 - 01.06.2020 04:00:00 (CEST)Auch, Frankrijk (7622): neerslag: 26.05.2020 04:00:00 - 01.06.2020 04:00:00 (CEST)
Datum & Tijd tt [°C] td [°C] tt 5cm [°C] tt -20cm [°C] tt -100cm [°C] ff [km/u] ff [kn] fx [km/u] fx [kn] dd ppp [hPa] vv [km] sd [min] rr [mm]
01.06.2020 04:00:00 16,2 14,9 12,3 21,8 18,0 0 0 5 3 N 1012,9 20 0 0,0
01.06.2020 03:00:00 16,5 14,5 13,0 21,9 17,9 0 0 12 6 N 1013,2 20 0 0,0
01.06.2020 02:00:00 17,6 15,0 15,2 22,1 17,9 2 1 11 6 ZZO 1013,0 20 0 0,0
01.06.2020 01:00:00 18,1 15,2 14,3 22,2 17,9 3 1 8 4 O 1012,9 20 0 0,0
01.06.2020 00:00:00 18,9 15,2 15,8 22,3 18,0 0 0 14 8 N 1012,9 20 0 0,0
31.05.2020 23:00:00 20,3 15,5 17,3 22,3 17,9 3 2 13 7 O 1012,9 19 0 0,0
31.05.2020 22:00:00 21,5 15,8 18,7 22,3 17,9 3 1 12 7 O 1012,2 19 0 0,0
31.05.2020 21:00:00 23,2 15,3 21,7 22,3 17,9 4 2 13 7 OZO 1011,4 20 0 0,0
31.05.2020 20:00:00 24,7 14,8 24,6 22,2 17,9 9 5 26 14 ZO 1011,1 20 12 0,0
31.05.2020 19:00:00 26,5 15,2 28,3 22,1 17,9 13 7 34 18 OZO 1010,4 20 51 0,0
31.05.2020 18:00:00 27,5 15,2 31,5 21,8 17,9 14 7 33 18 OZO 1010,4 20 58 0,0
31.05.2020 17:00:00 27,6 14,6 33,6 21,6 17,9 15 8 29 16 OZO 1010,5 20 60 0,0
31.05.2020 16:00:00 27,6 14,6 33,7 21,4 17,9 16 8 32 17 OZO 1010,5 20 60 0,0
31.05.2020 15:00:00 27,3 14,0 33,6 21,2 17,9 15 8 29 16 O 1010,9 20 60 0,0
31.05.2020 14:00:00 26,7 15,7 33,1 21,0 17,9 14 7 28 15 OZO 1011,3 20 60 0,0
31.05.2020 13:00:00 25,9 16,2 32,0 20,8 17,9 16 9 29 15 O 1011,6 20 60 0,0
31.05.2020 12:00:00 24,8 16,0 29,7 20,8 17,8 13 7 27 15 OZO 1011,9 20 60 0,0
31.05.2020 11:00:00 22,9 15,5 25,6 20,8 17,9 15 8 27 14 O 1012,2 20 60 0,0
31.05.2020 10:00:00 20,7 15,9 18,7 20,9 17,8 14 7 24 13 ZZO 1012,5 20 48 0,0
31.05.2020 09:00:00 18,1 15,2 16,6 21,0 17,8 12 6 30 16 ZO 1012,8 20 1 0,0
31.05.2020 08:00:00 16,9 15,1 15,0 21,2 17,8 8 5 18 10 OZO 1012,6 20 10 0,0
31.05.2020 07:00:00 15,2 14,1 8,9 21,3 17,8 7 4 16 9 ZO 1012,8 20 0 0,0
31.05.2020 06:00:00 14,5 12,9 9,9 21,5 17,8 0 0 14 7 N 1012,5 11 0 0,0
31.05.2020 05:00:00 15,2 14,1 9,2 21,6 17,8 3 2 12 7 N 1012,2 20 0 0,0
31.05.2020 04:00:00 14,1 12,8 9,5 21,8 17,8 0 0 7 4 N 1012,5 20 0 0,0
31.05.2020 03:00:00 15,0 13,4 9,7 21,9 17,8 2 1 9 5 ZW 1012,6 20 0 0,0
31.05.2020 02:00:00 16,0 14,2 10,2 22,1 17,8 0 0 6 4 N 1012,9 20 0 0,0
31.05.2020 01:00:00 16,3 13,6 10,8 22,2 17,8 0 0 2 1 N 1013,2 20 0 0,0
31.05.2020 00:00:00 17,5 13,2 12,0 22,3 17,8 0 0 4 2 N 1013,1 20 0 0,0
30.05.2020 23:00:00 21,0 13,9 15,6 22,4 17,8 5 3 14 7 ZO 1012,7 20 0 0,0
30.05.2020 22:00:00 22,7 12,9 19,9 22,4 17,8 7 4 14 8 ZZO 1011,9 20 0 0,0
30.05.2020 21:00:00 25,4 13,9 22,3 22,3 17,8 2 1 14 7 OZO 1011,6 20 26 0,0
30.05.2020 20:00:00 27,2 12,4 30,1 22,2 17,8 9 5 21 11 OZO 1011,4 20 60 0,0
30.05.2020 19:00:00 28,0 11,9 33,1 22,0 17,7 8 5 19 11 OZO 1011,5 20 60 0,0
30.05.2020 18:00:00 28,4 13,1 33,7 21,8 17,8 10 5 18 10 NO 1011,6 20 60 0,0
30.05.2020 17:00:00 28,6 12,1 30,3 21,6 17,8 8 4 20 11 ONO 1011,9 11 52 0,0
30.05.2020 16:00:00 28,3 12,6 35,7 21,3 17,7 8 4 18 10 NW 1012,2 20 60 0,0
30.05.2020 15:00:00 28,1 11,2 35,7 21,0 17,7 9 5 21 11 NNO 1012,6 20 60 0,0
30.05.2020 14:00:00 27,3 14,3 35,1 20,8 17,7 8 4 17 9 NO 1013,1 20 60 0,0
30.05.2020 13:00:00 26,2 16,4 33,6 20,7 17,7 6 4 18 10 OZO 1013,7 20 60 0,0
30.05.2020 12:00:00 25,0 16,2 30,5 20,6 17,7 8 4 21 11 ZO 1014,1 20 60 0,0
30.05.2020 11:00:00 23,0 15,3 26,8 20,6 17,7 11 6 21 12 OZO 1014,5 20 60 0,0
30.05.2020 10:00:00 21,6 15,4 22,1 20,7 17,7 9 5 22 12 ZO 1014,9 20 60 0,0
30.05.2020 09:00:00 19,7 14,9 21,5 20,7 17,7 11 6 23 13 ZO 1015,1 20 60 0,0
30.05.2020 08:00:00 17,5 14,6 10,7 20,9 17,7 5 3 14 7 ZO 1015,3 20 53 0,0
30.05.2020 07:00:00 13,6 12,8 8,5 21,1 17,7 0 0 4 2 N 1015,6 16 0 0,0
30.05.2020 06:00:00 13,7 12,4 8,8 21,2 17,7 0 0 2 1 N 1015,3 19 0 0,0
30.05.2020 05:00:00 14,9 12,9 9,8 21,3 17,7 0 0 6 4 N 1015,3 20 0 0,0
30.05.2020 04:00:00 16,6 13,1 11,9 21,5 17,7 0 0 13 7 N 1015,3 20 0 0,0
30.05.2020 03:00:00 17,7 13,0 12,9 21,6 17,6 8 4 14 8 OZO 1015,3 20 0 0,0
30.05.2020 02:00:00 17,7 12,2 12,7 21,7 17,6 2 1 13 7 ZZW 1015,3 20 0 0,0
30.05.2020 01:00:00 19,1 12,1 16,0 21,8 17,6 8 5 13 7 ZO 1015,3 20 0 0,0
30.05.2020 00:00:00 19,8 12,3 13,5 21,9 17,6 7 4 15 8 ZO 1015,0 20 0 0,0
29.05.2020 23:00:00 19,1 12,8 12,1 22,0 17,6 4 2 13 7 ZW 1015,0 20 0 0,0
29.05.2020 22:00:00 20,4 13,1 13,6 22,0 17,6 0 0 5 3 N 1014,2 20 0 0,0
29.05.2020 21:00:00 25,5 12,7 22,4 21,9 17,6 4 2 15 8 NNO 1013,5 20 26 0,0
29.05.2020 20:00:00 27,3 12,1 29,7 21,8 17,6 9 5 16 9 N 1013,0 20 60 0,0
29.05.2020 19:00:00 28,7 11,7 33,0 21,6 17,6 6 3 21 11 NNW 1012,9 20 60 0,0
29.05.2020 18:00:00 28,8 12,2 34,4 21,4 17,6 5 3 19 10 NNO 1013,4 20 60 0,0
29.05.2020 17:00:00 29,0 12,8 35,5 21,2 17,6 6 3 18 10 O 1013,7 20 60 0,0
29.05.2020 16:00:00 28,2 12,5 35,2 20,9 17,6 11 6 20 11 N 1014,0 20 60 0,0
29.05.2020 15:00:00 27,9 13,4 34,7 20,7 17,6 10 5 23 12 NO 1014,6 20 60 0,0
29.05.2020 14:00:00 27,4 14,8 34,8 20,5 17,5 13 7 22 12 N 1015,0 20 60 0,0
29.05.2020 13:00:00 26,6 14,0 32,7 20,3 17,5 8 4 21 12 N 1015,5 20 60 0,0
29.05.2020 12:00:00 25,7 17,1 32,2 20,3 17,5 11 6 18 10 NNO 1016,2 20 60 0,0
29.05.2020 11:00:00 24,7 15,6 28,3 20,3 17,5 6 3 12 7 ONO 1016,3 20 60 0,0
29.05.2020 10:00:00 22,7 14,3 24,4 20,4 17,5 3 1 7 4 NNO 1016,9 20 60 0,0
29.05.2020 09:00:00 19,0 14,0 19,3 20,5 17,5 0 0 7 4 N 1017,3 20 60 0,0
29.05.2020 08:00:00 15,0 13,0 10,5 20,6 17,5 5 3 10 6 Z 1017,7 20 53 0,2
29.05.2020 07:00:00 12,2 11,3 7,1 20,8 17,5 5 3 10 6 ZZW 1018,1 20 0 0,0
29.05.2020 06:00:00 11,8 10,9 7,1 21,0 17,5 0 0 3 2 N 1017,9 20 0 0,0
29.05.2020 05:00:00 12,4 11,5 7,7 21,1 17,5 0 0 4 2 N 1018,1 20 0 0,0
29.05.2020 04:00:00 13,0 11,9 8,2 21,3 17,5 4 2 9 5 ZW 1018,3 20 0 0,0
29.05.2020 03:00:00 13,2 11,8 8,5 21,4 17,5 2 1 3 2 ZW 1018,6 20 0 0,0
29.05.2020 02:00:00 14,1 12,3 9,2 21,6 17,5 0 0 0 0 N 1019,0 20 0 0,0
29.05.2020 01:00:00 14,6 12,5 9,8 21,7 17,5 0 0 0 0 N 1019,5 20 0 0,0
29.05.2020 00:00:00 15,7 12,6 10,8 21,8 17,5 0 0 0 0 N 1019,8 20 0 0,0
28.05.2020 23:00:00 17,1 13,0 11,6 21,8 17,5 0 0 2 1 N 1020,1 20 0 0,0
28.05.2020 22:00:00 19,3 13,2 13,5 21,9 17,5 2 1 4 2 ZZW 1019,7 20 0 0,0
28.05.2020 21:00:00 25,7 13,2 22,8 21,8 17,5 4 2 12 6 NO 1019,3 20 26 0,0
28.05.2020 20:00:00 27,8 11,8 30,6 21,7 17,4 5 3 16 9 ONO 1019,4 20 60 0,0
28.05.2020 19:00:00 28,4 11,5 32,7 21,5 17,5 8 4 16 9 NO 1019,5 20 60 0,0
28.05.2020 18:00:00 28,9 11,9 34,2 21,3 17,4 6 3 17 9 NNO 1020,0 20 60 0,0
28.05.2020 17:00:00 28,7 11,7 34,8 21,0 17,4 6 3 22 12 ZO 1020,4 20 60 0,0
28.05.2020 16:00:00 28,4 12,7 34,7 20,7 17,4 9 5 22 12 NNO 1021,1 19 60 0,0
28.05.2020 15:00:00 28,0 13,5 34,4 20,5 17,4 10 6 28 15 O 1021,9 20 60 0,0
28.05.2020 14:00:00 27,0 14,4 33,9 20,2 17,4 10 5 22 12 ONO 1022,6 20 60 0,0
28.05.2020 13:00:00 25,7 15,7 32,1 20,1 17,4 6 4 19 10 ONO 1023,2 19 60 0,0
28.05.2020 12:00:00 24,2 15,7 30,4 20,1 17,4 8 5 19 10 OZO 1023,9 20 60 0,0
28.05.2020 11:00:00 23,0 16,3 26,1 20,1 17,4 9 5 20 11 O 1024,5 19 60 0,0
28.05.2020 10:00:00 21,1 15,2 21,9 20,1 17,4 12 7 18 10 OZO 1025,0 20 60 0,0
28.05.2020 09:00:00 19,2 14,7 21,4 20,3 17,4 10 5 16 8 OZO 1025,2 20 60 0,0
28.05.2020 08:00:00 15,5 13,7 9,5 20,4 17,4 2 1 5 3 NNW 1025,6 20 53 0,0
28.05.2020 07:00:00 12,7 11,9 7,6 20,6 17,4 0 0 4 2 N 1025,9 20 0 0,0
28.05.2020 06:00:00 12,5 10,9 8,1 20,7 17,4 0 0 5 3 N 1025,9 20 0 0,0
28.05.2020 05:00:00 14,0 11,3 9,1 20,8 17,4 0 0 10 5 N 1025,7 20 0 0,0
28.05.2020 04:00:00 16,2 12,0 10,7 21,0 17,4 7 4 14 7 NO 1025,7 20 0 0,0
28.05.2020 03:00:00 15,5 12,3 11,4 21,1 17,4 0 0 15 8 N 1025,6 20 0 0,0
28.05.2020 02:00:00 16,9 12,2 11,2 21,2 17,4 5 3 10 6 ZO 1025,7 20 0 0,0
28.05.2020 01:00:00 16,8 11,5 11,8 21,3 17,4 0 0 8 5 N 1026,2 20 0 0,0
28.05.2020 00:00:00 19,7 11,7 17,3 21,4 17,4 7 4 23 12 ZW 1025,9 20 0 0,0
27.05.2020 23:00:00 21,3 11,6 19,6 21,4 17,3 9 5 23 12 ZZO 1025,8 20 0 0,0
27.05.2020 22:00:00 22,6 13,6 19,2 21,4 17,4 7 4 16 8 ZO 1025,0 20 0 0,0
27.05.2020 21:00:00 24,8 13,4 23,5 21,3 17,4 9 5 16 8 ZO 1024,5 20 4 0,0
27.05.2020 20:00:00 27,5 13,1 29,5 21,2 17,4 8 4 19 11 OZO 1024,0 20 58 0,0
27.05.2020 19:00:00 28,3 13,0 29,7 21,0 17,3 8 4 16 9 O 1023,8 20 56 0,0
27.05.2020 18:00:00 28,3 13,8 30,4 20,7 17,3 10 6 20 11 O 1024,2 20 57 0,0
27.05.2020 17:00:00 28,4 13,9 34,7 20,4 17,3 5 3 23 12 ONO 1024,4 20 60 0,0
27.05.2020 16:00:00 28,3 13,0 33,5 20,2 17,3 7 4 24 13 ONO 1024,9 20 60 0,0
27.05.2020 15:00:00 27,5 13,8 33,8 19,9 17,3 7 4 21 11 O 1025,4 20 60 0,0
27.05.2020 14:00:00 25,8 14,3 34,2 19,7 17,3 10 6 18 10 N 1025,8 20 60 0,0
27.05.2020 13:00:00 24,9 15,0 32,5 19,6 17,3 9 5 19 11 N 1026,3 20 60 0,0
27.05.2020 12:00:00 23,5 15,5 31,3 19,5 17,3 6 3 16 8 NW 1026,5 20 60 0,0
27.05.2020 11:00:00 22,2 15,3 27,8 19,5 17,3 5 3 12 7 W 1026,7 19 60 0,0
27.05.2020 10:00:00 20,2 13,9 22,7 19,6 17,3 4 2 9 5 W 1026,9 20 60 0,0
27.05.2020 09:00:00 18,3 14,8 18,0 19,7 17,3 2 1 7 4 Z 1026,8 20 60 0,0
27.05.2020 08:00:00 14,2 12,9 10,6 19,8 17,3 6 4 11 6 Z 1027,0 20 53 0,0
27.05.2020 07:00:00 11,5 10,9 6,9 20,0 17,3 8 5 13 7 Z 1026,8 20 0 0,0
27.05.2020 06:00:00 10,6 9,7 6,7 20,1 17,3 2 1 8 4 ZZW 1026,7 20 0 0,0
27.05.2020 05:00:00 11,9 10,8 9,3 20,2 17,3 7 4 10 5 Z 1026,4 20 0 0,0
27.05.2020 04:00:00 12,7 11,4 10,1 20,4 17,3 6 4 10 6 ZZW 1026,4 20 0 0,0
27.05.2020 03:00:00 13,0 11,7 8,0 20,5 17,3 8 4 11 6 ZZW 1026,6 20 0 0,0
27.05.2020 02:00:00 13,2 11,4 8,7 20,7 17,2 2 1 4 2 ZZW 1026,6 20 0 0,0
27.05.2020 01:00:00 14,4 11,9 9,7 20,8 17,3 0 0 10 5 N 1027,0 20 0 0,0
27.05.2020 00:00:00 14,4 12,1 9,6 20,8 17,3 6 4 9 5 ZZW 1027,0 20 0 0,0
26.05.2020 23:00:00 15,0 12,5 10,9 20,9 17,3 5 3 6 4 Z 1027,2 20 0 0,0
26.05.2020 22:00:00 17,4 12,3 12,5 20,9 17,3 3 2 5 3 Z 1026,5 20 0 0,0
26.05.2020 21:00:00 24,2 13,7 20,2 20,8 17,3 0 0 17 9 N 1026,1 20 31 0,0
26.05.2020 20:00:00 25,6 12,4 30,1 20,6 17,3 7 4 17 9 N 1025,6 18 60 0,0
26.05.2020 19:00:00 26,1 11,8 32,0 20,4 17,3 11 6 23 12 N 1025,7 20 60 0,0
26.05.2020 18:00:00 26,4 12,8 33,6 20,2 17,3 9 5 26 14 N 1025,8 20 60 0,0
26.05.2020 17:00:00 26,5 12,5 33,4 19,9 17,3 7 4 19 10 NNW 1026,3 20 60 0,0
26.05.2020 16:00:00 26,2 15,0 34,1 19,7 17,3 8 5 21 11 WNW 1026,7 20 60 0,0
26.05.2020 15:00:00 24,8 14,9 33,2 19,5 17,3 8 4 19 10 NNW 1027,1 20 60 0,0
26.05.2020 14:00:00 23,8 15,3 31,2 19,3 17,3 8 5 21 11 NW 1027,7 20 60 0,0
26.05.2020 13:00:00 22,4 16,0 29,2 19,1 17,2 10 5 20 11 W 1028,1 19 60 0,0
26.05.2020 12:00:00 20,4 15,4 23,0 19,1 17,2 9 5 19 10 WZW 1028,5 20 49 0,0
26.05.2020 11:00:00 18,5 15,0 19,0 19,1 17,3 9 5 24 13 W 1028,9 20 15 0,0
26.05.2020 10:00:00 16,6 13,9 17,1 19,2 17,2 13 7 23 12 W 1029,1 19 0 0,0
26.05.2020 09:00:00 15,2 14,1 15,0 19,3 17,3 7 4 19 11 W 1029,0 16 0 0,0
26.05.2020 08:00:00 14,0 13,0 10,9 19,5 17,3 10 5 19 10 ZW 1028,7 11 20 0,0
26.05.2020 07:00:00 11,7 10,6 10,0 19,6 17,2 8 5 12 6 Z 1028,5 20 0 0,2
26.05.2020 06:00:00 11,5 10,1 9,9 19,7 17,3 9 5 13 7 Z 1028,1 20 0 0,0
26.05.2020 05:00:00 12,0 10,6 10,4 19,8 17,3 9 5 13 7 Z 1027,7 20 0 0,0
26.05.2020 04:00:00 12,7 10,8 10,9 20,0 17,3 10 6 14 8 Z 1027,7 20 0 0,0

tt = temperatuur
td = dauwpunt
tt 5cm = temperatuur 5cm
tt -20cm = temperatuur -20cm
tt -100cm = temperatuur -100cm
ff = windsnelheid
fx = windstoten
dd = windrichting
ppp = luchtdruk
vv = zicht
sd = Zonneschijnduur
rr = neerslag

Weerstations in de omgeving